User: anonymous   Login
Location: Maiden
(35.5760°N, 81.2120°W)
Time: 22:13:43
(UTC-04:00)
Language:

Cosmos 1400 Rocket - Orbit

View from above orbital plane
View from above orbital plane
View from above satellite
View from above satellite

Ground track
Ground track

The orbit data is extracted from the following two-line orbital elements,

1 13403U 82079B   19111.54198104 -.00000132  00000-0 -10268-4 0  9991
2 13403  81.1707 217.8187 0032932 215.2068 144.6981 15.06989646998120
Epoch (UTC): 21 April 2019 13:00:27
Eccentricity: 0.0032932
inclination: 81.1707°
perigee height: 522 km
apogee height: 568 km
right ascension of ascending node: 217.8187°
argument of perigee: 215.2068°
revolutions per day: 15.06989646
mean anomaly at epoch: 144.6981°
orbit number at epoch: 99812

The dashed part of the orbit path shows where the satellite is in the earth's shadow,  

DLR